Weather reports worldwide

Advertisment
Manresa, Spain (8174): temperature & dewpoint: 18.06.2018 16:00:00 - 24.06.2018 16:00:00 (CEST)Manresa, Spain (8174): wind speed & gusts: 18.06.2018 16:00:00 - 24.06.2018 16:00:00 (CEST)Manresa, Spain (8174): wind direction: 18.06.2018 16:00:00 - 24.06.2018 16:00:00 (CEST)Manresa, Spain (8174): reduced air pressure: 18.06.2018 16:00:00 - 24.06.2018 16:00:00 (CEST)Manresa, Spain (8174): visibility: 18.06.2018 16:00:00 - 24.06.2018 16:00:00 (CEST)Manresa, Spain (8174): sunshine duration: 18.06.2018 16:00:00 - 24.06.2018 16:00:00 (CEST)Manresa, Spain (8174): precipitation: 18.06.2018 16:00:00 - 24.06.2018 16:00:00 (CEST)
Date & Time tt [°C] td [°C] ff [km/h] ff [kn] fx [km/h] fx [kn] dd ppp [hPa] vv [km] sd [min] rr [mm]
24.06.2018 16:00:00 28,6 13,3 14 8 33 18 S 1014,7 20 60 0,0
24.06.2018 15:00:00 28,6 12,4 15 8 28 15 S 1015,0 20 60 0,0
24.06.2018 14:00:00 28,3 11,3 10 5 19 10 S 1015,7 20 60 -
24.06.2018 13:00:00 26,8 10,5 8 5 19 10 S 1016,4 20 52 0,0
24.06.2018 12:00:00 26,6 10,3 9 5 17 9 S 1016,7 20 60 0,0
24.06.2018 11:00:00 25,1 14,2 4 2 9 5 S 1017,1 20 41 0,0
24.06.2018 10:00:00 22,6 16,0 3 2 7 4 SSW 1017,8 20 8 0,0
24.06.2018 09:00:00 20,9 15,4 5 3 9 5 NNE 1018,0 20 46 0,0
24.06.2018 08:00:00 18,4 14,9 3 2 5 3 W 1018,2 20 38 -
24.06.2018 07:00:00 17,4 14,7 2 1 6 3 SSW 1018,1 20 0 0,0
24.06.2018 06:00:00 18,0 14,7 2 1 5 3 SSW 1017,8 20 0 0,0
24.06.2018 05:00:00 18,7 15,0 2 1 6 3 W 1017,9 20 0 0,0
24.06.2018 04:00:00 19,4 15,3 3 1 7 4 W 1018,1 20 0 0,0
24.06.2018 03:00:00 19,3 15,0 3 1 5 3 W 1018,6 20 0 0,0
24.06.2018 02:00:00 19,6 14,8 3 1 6 4 SW 1018,8 20 0 -
24.06.2018 01:00:00 20,2 14,3 3 2 6 4 WSW 1018,8 20 0 0,0
24.06.2018 00:00:00 20,6 13,8 3 2 8 5 SW 1018,7 20 0 0,0
23.06.2018 23:00:00 21,4 14,3 6 4 12 6 SSW 1018,4 20 0 0,0
23.06.2018 22:00:00 22,3 13,9 8 4 22 12 S 1017,9 20 0 0,0
23.06.2018 21:00:00 23,2 14,7 9 5 29 16 S 1017,7 20 25 0,0
23.06.2018 20:00:00 24,9 14,6 16 8 30 16 S 1016,7 20 60 -
23.06.2018 19:00:00 26,2 15,0 16 9 35 19 S 1015,9 20 60 0,0
23.06.2018 18:00:00 26,7 15,1 19 10 33 18 S 1015,8 20 60 0,0
23.06.2018 17:00:00 27,5 14,5 16 9 34 18 S 1015,8 20 60 0,0
23.06.2018 16:00:00 28,0 15,0 15 8 32 17 S 1016,1 20 60 0,0
23.06.2018 15:00:00 28,0 15,0 15 8 27 15 SSW 1016,5 20 60 0,0
23.06.2018 14:00:00 27,7 15,7 14 7 26 14 SSW 1017,0 20 60 -
23.06.2018 13:00:00 27,6 16,2 9 5 20 11 SSW 1017,5 20 54 0,0
23.06.2018 12:00:00 26,4 16,6 6 3 14 8 S 1017,7 20 42 0,0
23.06.2018 11:00:00 25,5 16,6 4 2 14 7 SW 1017,9 20 57 0,0
23.06.2018 10:00:00 23,4 17,1 4 2 8 4 SW 1018,4 16 60 0,0
23.06.2018 09:00:00 20,8 16,4 4 2 8 4 W 1018,7 14 60 0,0
23.06.2018 08:00:00 19,0 16,4 3 2 7 4 NNE 1018,7 13 0 -
23.06.2018 07:00:00 18,5 15,7 4 2 9 5 NW 1018,6 11 0 0,0
23.06.2018 06:00:00 18,6 15,6 4 2 8 5 WNW 1018,3 15 0 0,0
23.06.2018 05:00:00 19,2 16,0 2 1 8 4 NW 1018,2 20 0 0,0
23.06.2018 04:00:00 19,7 16,0 3 2 6 4 W 1018,3 20 0 0,0
23.06.2018 03:00:00 20,9 17,1 3 2 9 5 SSW 1017,9 20 0 0,0
23.06.2018 02:00:00 22,0 18,0 6 3 10 5 SSW 1017,8 19 0 -
23.06.2018 01:00:00 22,7 17,6 4 2 16 9 S 1017,9 20 0 0,0
23.06.2018 00:00:00 23,1 17,3 7 4 16 9 S 1017,7 20 0 0,0
22.06.2018 23:00:00 23,6 16,6 9 5 20 11 S 1017,4 20 0 0,0
22.06.2018 22:00:00 24,5 14,6 9 5 24 13 SSE 1016,4 20 0 0,0
22.06.2018 21:00:00 25,5 13,4 11 6 32 17 SSE 1015,7 20 2 0,0
22.06.2018 20:00:00 26,6 14,3 15 8 36 20 S 1015,1 20 26 -
22.06.2018 19:00:00 28,3 15,3 15 8 35 19 S 1014,2 20 60 0,0
22.06.2018 18:00:00 29,5 14,5 17 9 39 21 S 1014,1 20 59 0,0
22.06.2018 17:00:00 30,5 14,1 16 8 30 16 SSW 1013,8 20 59 0,0
22.06.2018 16:00:00 31,4 13,7 14 8 31 17 S 1013,8 20 60 0,0
22.06.2018 15:00:00 31,0 13,3 14 7 33 18 S 1014,0 20 51 0,0
22.06.2018 14:00:00 31,7 12,0 14 7 27 15 S 1014,4 20 53 -
22.06.2018 13:00:00 30,8 12,6 6 4 14 8 SSW 1015,2 20 60 0,0
22.06.2018 12:00:00 29,9 12,3 3 2 8 4 S 1015,6 20 60 0,0
22.06.2018 11:00:00 27,0 13,0 3 2 10 6 S 1016,1 20 60 0,0
22.06.2018 10:00:00 24,1 15,1 2 1 9 5 WSW 1016,7 20 60 0,0
22.06.2018 09:00:00 21,7 13,9 2 1 7 4 NE 1017,2 20 39 0,0
22.06.2018 08:00:00 19,9 14,2 4 2 10 6 NE 1017,4 13 19 -
22.06.2018 07:00:00 18,8 14,2 1 1 10 6 ENE 1017,3 20 0 0,0
22.06.2018 06:00:00 19,0 14,2 4 2 8 4 NNE 1017,3 20 0 0,0
22.06.2018 05:00:00 19,4 14,2 2 1 9 5 WNW 1017,3 20 0 0,0
22.06.2018 04:00:00 19,7 14,0 3 2 7 4 NE 1017,3 20 0 0,0
22.06.2018 03:00:00 20,9 14,3 1 1 8 4 N 1017,3 20 0 0,0
22.06.2018 02:00:00 21,3 13,5 4 2 7 4 NNE 1017,5 20 0 -
22.06.2018 01:00:00 22,2 12,7 1 1 7 4 ESE 1017,4 20 0 0,0
22.06.2018 00:00:00 23,8 11,1 1 1 3 2 S 1017,2 20 0 0,0
21.06.2018 23:00:00 25,3 10,8 2 1 9 5 SE 1016,9 20 0 0,0
21.06.2018 22:00:00 26,8 10,9 5 3 15 8 SSW 1015,9 20 0 0,0
21.06.2018 21:00:00 28,1 9,8 9 5 23 12 S 1015,5 20 2 0,0
21.06.2018 20:00:00 30,1 11,1 10 5 23 13 S 1014,7 20 54 -
21.06.2018 19:00:00 31,1 11,4 12 7 27 15 S 1014,6 20 60 0,0
21.06.2018 18:00:00 31,9 11,1 13 7 27 15 S 1014,7 20 60 0,0
21.06.2018 17:00:00 31,7 12,0 13 7 29 16 S 1015,0 20 51 0,0
21.06.2018 16:00:00 32,0 11,8 15 8 30 16 S 1015,4 20 60 0,0
21.06.2018 15:00:00 31,6 11,9 14 8 29 16 S 1015,7 20 60 0,0
21.06.2018 14:00:00 31,9 11,7 9 5 20 11 SSW 1015,9 20 60 -
21.06.2018 13:00:00 30,5 12,8 8 4 16 9 SSW 1016,5 20 60 0,0
21.06.2018 12:00:00 28,5 12,4 3 2 10 5 WSW 1017,0 20 60 0,0
21.06.2018 11:00:00 25,8 13,3 3 2 9 5 N 1017,6 18 60 0,0
21.06.2018 10:00:00 22,8 13,6 5 3 9 5 NNE 1018,3 20 60 0,0
21.06.2018 09:00:00 20,1 13,4 3 2 7 4 NE 1018,8 17 60 0,0
21.06.2018 08:00:00 16,8 13,0 3 2 5 3 WNW 1019,2 20 40 -
21.06.2018 07:00:00 16,0 12,7 3 2 7 4 NW 1019,0 20 0 0,0
21.06.2018 06:00:00 16,4 13,0 3 2 7 4 NNE 1019,0 20 0 0,0
21.06.2018 05:00:00 16,7 13,1 3 1 6 3 N 1019,1 20 0 0,0
21.06.2018 04:00:00 17,7 13,5 3 1 7 4 NE 1019,3 20 0 0,0
21.06.2018 03:00:00 18,5 13,4 3 2 10 5 NE 1019,5 20 0 0,0
21.06.2018 02:00:00 19,2 13,2 5 3 8 4 NNE 1019,3 20 0 -
21.06.2018 01:00:00 20,5 12,7 3 1 9 5 SSW 1019,2 20 0 0,0
21.06.2018 00:00:00 22,0 12,2 4 2 9 5 W 1019,2 20 0 0,0
20.06.2018 23:00:00 23,7 11,1 4 2 12 6 SW 1018,9 20 0 0,0
20.06.2018 22:00:00 25,1 12,0 6 3 17 9 S 1017,9 20 0 0,0
20.06.2018 21:00:00 26,7 10,8 8 4 19 11 S 1017,4 20 32 0,0
20.06.2018 20:00:00 28,8 10,4 10 5 25 13 S 1017,0 20 60 -
20.06.2018 19:00:00 29,7 9,8 15 8 28 15 S 1016,5 20 60 0,0
20.06.2018 18:00:00 30,5 9,9 14 8 29 16 S 1016,7 20 60 0,0
20.06.2018 17:00:00 31,0 9,8 12 7 27 15 S 1016,6 20 60 0,0
20.06.2018 16:00:00 30,8 11,7 13 7 29 16 S 1016,9 20 60 0,0
20.06.2018 15:00:00 30,8 11,7 12 7 24 13 SSW 1017,3 20 60 0,0
20.06.2018 14:00:00 30,4 11,9 11 6 22 12 SSW 1017,7 20 60 -
20.06.2018 13:00:00 29,0 13,7 9 5 15 8 SSW 1018,3 20 60 0,0
20.06.2018 12:00:00 27,6 13,6 5 3 9 5 SSE 1018,7 7 60 0,0
20.06.2018 11:00:00 24,9 14,3 3 2 10 5 SSW 1019,2 20 60 0,0
20.06.2018 10:00:00 22,5 14,6 3 2 7 4 ENE 1019,9 20 60 0,0
20.06.2018 09:00:00 19,9 14,5 3 1 7 4 N 1020,4 18 60 0,0
20.06.2018 08:00:00 17,5 13,9 4 2 8 4 NNE 1020,6 20 40 -
20.06.2018 07:00:00 15,5 13,2 1 1 5 3 W 1020,8 20 0 0,0
20.06.2018 06:00:00 16,2 13,7 4 2 7 4 NNE 1020,6 19 0 0,0
20.06.2018 05:00:00 16,6 13,7 2 1 6 3 WNW 1020,3 20 0 0,0
20.06.2018 04:00:00 17,5 14,2 3 2 8 4 NE 1020,4 18 0 0,0
20.06.2018 03:00:00 17,9 14,4 3 2 9 5 NNE 1020,6 20 0 0,0
20.06.2018 02:00:00 18,9 14,3 3 1 9 5 NE 1020,5 20 0 -
20.06.2018 01:00:00 19,8 14,1 3 2 7 4 NE 1020,3 20 0 0,0
20.06.2018 00:00:00 21,4 13,6 3 2 5 3 WSW 1020,2 20 0 0,0
19.06.2018 23:00:00 22,7 14,0 3 1 15 8 SSW 1019,6 20 0 0,0
19.06.2018 22:00:00 24,3 13,0 7 4 17 9 S 1018,7 20 9 0,0
19.06.2018 21:00:00 26,0 12,8 11 6 24 13 S 1018,2 20 60 0,0
19.06.2018 20:00:00 27,3 13,3 13 7 29 15 SSW 1017,9 20 60 -
19.06.2018 19:00:00 28,5 13,6 13 7 30 16 S 1017,6 20 60 0,0
19.06.2018 18:00:00 29,0 13,3 15 8 31 17 S 1017,9 20 58 0,0
19.06.2018 17:00:00 30,9 11,3 9 5 17 9 SSW 1017,6 20 60 0,0
19.06.2018 16:00:00 30,4 10,9 5 3 16 9 W 1018,0 20 60 0,0
19.06.2018 15:00:00 29,6 12,1 4 2 15 8 N 1018,5 20 60 0,0
19.06.2018 14:00:00 28,4 13,2 5 3 16 8 N 1019,3 20 60 -
19.06.2018 13:00:00 26,3 12,3 5 3 14 8 WNW 1020,2 20 60 0,0
19.06.2018 12:00:00 25,1 13,0 4 2 10 5 SSW 1020,8 20 60 0,0
19.06.2018 11:00:00 23,3 13,2 6 3 13 7 NE 1021,3 20 60 0,0
19.06.2018 10:00:00 21,4 12,7 4 2 12 6 W 1022,1 20 60 0,0
19.06.2018 09:00:00 19,4 13,2 8 4 14 8 ENE 1022,5 20 60 0,0
19.06.2018 08:00:00 16,8 12,7 8 4 12 6 NE 1022,5 20 40 -
19.06.2018 07:00:00 14,9 12,4 5 3 10 6 NE 1022,5 20 0 0,0
19.06.2018 06:00:00 15,4 12,5 6 4 11 6 NE 1021,9 20 0 0,0
19.06.2018 05:00:00 16,1 13,1 5 3 9 5 ENE 1021,5 20 0 0,0
19.06.2018 04:00:00 16,5 12,8 2 1 8 4 NNE 1021,4 20 0 0,0
19.06.2018 03:00:00 17,2 13,4 3 1 7 4 NE 1021,4 20 0 0,0
19.06.2018 02:00:00 18,0 12,8 2 1 10 5 NNW 1021,2 20 0 -
19.06.2018 01:00:00 19,3 12,3 3 2 13 7 ENE 1020,9 20 0 0,0
19.06.2018 00:00:00 20,4 11,6 3 2 5 3 SW 1020,7 20 0 0,0
18.06.2018 23:00:00 21,7 12,0 3 1 18 10 WSW 1020,2 20 0 0,0
18.06.2018 22:00:00 23,3 12,0 9 5 21 11 S 1019,1 20 9 0,0
18.06.2018 21:00:00 25,4 12,6 11 6 23 13 S 1018,4 20 60 0,0
18.06.2018 20:00:00 26,9 12,1 14 7 30 16 S 1017,8 20 60 -
18.06.2018 19:00:00 27,5 12,3 17 9 32 17 S 1017,3 20 60 0,0
18.06.2018 18:00:00 28,8 12,6 17 9 33 18 S 1017,2 20 60 0,0
18.06.2018 17:00:00 30,8 9,0 5 3 23 12 W 1017,1 20 60 0,0
18.06.2018 16:00:00 30,4 9,8 6 3 21 11 W 1017,5 20 60 0,0

tt = temperature
td = dewpoint
ff = wind speed
fx = gusts
dd = wind direction
ppp = reduced air pressure
vv = visibility
sd = sunshine duration
rr = precipitation

Next stations